FW2987 Weather Reports


Display with metric or nautical units.
time (UTC)temp
F
wind
direction
speed
MPH
gust
MPH
rain 1hr
in
rain 24hr
in
rain mn
in
humidity
%
barometer
mb
20260509191654 65 5 2.0 5.0 0.00 0.11 0.11 100 1010.0
20260509190653 66 5 1.0 4.0 0.00 0.11 0.11 100 1009.9
20260509190148 67 5 2.0 4.0 0.00 0.11 0.11 100 1009.8
20260509185640 67 5 1.0 3.0 0.00 0.11 0.11 100 1009.9
20260509185137 67 5 2.0 3.0 0.00 0.11 0.11 100 1009.8
20260509184707 67 5 1.0 3.0 0.00 0.11 0.11 100 1009.8
20260509184132 67 5 0.0 0.0 0.00 0.11 0.11 100 1009.8
20260509183632 67 5 0.0 2.0 0.00 0.11 0.11 100 1009.7
20260509183131 67 5 1.0 4.0 0.00 0.11 0.11 100 1009.7
20260509182626 67 5 1.0 4.0 0.00 0.11 0.11 100 1009.6
20260509182124 67 5 1.0 4.0 0.00 0.11 0.11 100 1009.5
20260509181623 67 5 1.0 5.0 0.00 0.11 0.11 100 1009.5
20260509181120 67 5 2.0 6.0 0.00 0.11 0.11 100 1009.4
20260509180619 68 5 3.0 6.0 0.00 0.11 0.11 100 1009.6
20260509180119 68 5 2.0 5.0 0.00 0.11 0.11 100 1009.5
20260509175615 69 5 0.0 5.0 0.00 0.11 0.11 100 1009.5
20260509175112 68 5 2.0 5.0 0.00 0.11 0.11 100 1009.4
20260509174611 69 5 2.0 5.0 0.00 0.11 0.11 100 1009.4
20260509174106 69 5 1.0 6.0 0.00 0.11 0.11 100 1009.3
20260509173604 69 5 3.0 6.0 0.00 0.11 0.11 100 1009.4
20260509173058 69 5 2.0 6.0 0.00 0.11 0.11 100 1009.4
20260509172552 69 5 2.0 5.0 0.00 0.11 0.11 100 1009.4
20260509172053 69 5 1.0 5.0 0.00 0.11 0.11 100 1009.4
20260509171540 68 5 0.0 5.0 0.00 0.11 0.11 100 1009.5
20260509171038 68 9 2.0 6.0 0.00 0.11 0.11 100 1009.4
20260509170536 69 10 3.0 5.0 0.00 0.11 0.11 100 1009.5
20260509170034 69 10 2.0 8.0 0.00 0.11 0.11 100 1009.5
20260509165524 69 11 3.0 8.0 0.00 0.11 0.11 100 1009.6
20260509165022 69 13 2.0 6.0 0.00 0.11 0.11 100 1009.6
20260509164520 69 13 3.0 6.0 0.00 0.11 0.11 100 1009.6
20260509164019 68 19 1.0 5.0 0.00 0.11 0.11 100 1009.6
20260509163516 68 21 1.0 6.0 0.00 0.11 0.11 100 1009.7
20260509163014 68 21 4.0 6.0 0.00 0.11 0.11 100 1009.6
20260509162513 68 19 0.0 5.0 0.00 0.11 0.11 100 1009.7
20260509162010 68 19 1.0 6.0 0.00 0.11 0.11 100 1009.7
20260509161508 68 19 2.0 6.0 0.00 0.11 0.11 100 1009.7
20260509161008 68 21 2.0 6.0 0.00 0.11 0.11 100 1009.7
20260509160502 68 20 2.0 8.0 0.00 0.11 0.11 100 1009.8